Regional Weather Roundup
Issued by NWS

Home | Current Version | Previous Version | Graphics & Text | Print | Product List | Glossary On
Versions: 1 2 3 4 5 6 7 8 9 10 11 12 13 14 15 16 17 18 19 20 21 22 23 24 25 26 27 28 29 30 31 32 33 34 35 36 37 38 39 40 41 42 43 44 45 46 47 48 49 50
000
ASUS43 KBIS 191510
RWRND

NORTH DAKOTA REGIONAL WEATHER ROUNDUP
NATIONAL WEATHER SERVICE BISMARCK ND
1000 AM CDT SAT AUG 19 2017

NOTE: "FAIR" INDICATES FEW OR NO CLOUDS BELOW 12,000 FEET WITH NO
SIGNIFICANT WEATHER AND/OR OBSTRUCTIONS TO VISIBILITY.


NDZ001>003-009>011-017-191600-
NORTHWEST NORTH DAKOTA

CITY           SKY/WX    TMP DP  RH WIND       PRES   REMARKS
WILLISTON      SUNNY     70  53  54 S7        29.73F
MINOT          SUNNY     74  56  53 S13       29.73F
MINOT AFB      SUNNY     75  55  49 S15       29.70F
$$

NDZ018>021-031>035-040>046-191600-
SOUTHWEST NORTH DAKOTA

CITY           SKY/WX    TMP DP  RH WIND       PRES   REMARKS
BISMARCK       SUNNY     71  61  70 SE8       29.81F
DICKINSON      SUNNY     70  53  54 SW10      29.78S
GARRISON         N/A     67  58  72 S9        29.76F
HETTINGER ARPT SUNNY     67  54  63 SW10      29.84F
$$

NDZ004>008-012>016-024-026-027-054-191600-
NORTHEAST NORTH DAKOTA

CITY           SKY/WX    TMP DP  RH WIND       PRES   REMARKS
GRAND FORKS    SUNNY     74  61  63 SW10      29.82F
GRND FRKS AFB  SUNNY     74  59  59 SW8       29.83S
DEVILS LAKE    SUNNY     73  58  59 SW14      29.81F
$$

NDZ022-023-025-028>030-036>039-047>053-191600-
SOUTHEAST NORTH DAKOTA

CITY           SKY/WX    TMP DP  RH WIND       PRES   REMARKS
FARGO          SUNNY     69  61  75 S8        29.88S
JAMESTOWN      SUNNY     71  63  75 S7        29.85F
$$





USA.gov is the U.S. government's official web portal to all federal, state and local government web resources and services.